[[{"header":{"parameterUnit":"m.s-1","parameterCategory":1,"la1":30.2991,"la2":30.254,"lo1":-89.0895,"lo2":-89.0444,"dy":0.0017,"dx":0.0017,"nx":28,"ny":28,"refTime":"2025-01-02T09:00:00:Z","depth":0,"parameterNumber":2,"parameterNumberName":"U-component_of_WINDS"},"data":[0,0,0,0,0,0,0,0,0,0,0,0,0,0,0,0,0,0,0,0,0,0,0,0,0,0,0,0,0,0,0,0,0,0,0,0,0,0,0,0,0,0,0,0,0,0,0,0,0,0,0,0,0,0,0,0,0,0,-2.2032,-2.2033,0,-2.2126,-2.2127,-2.2128,-2.2065,-2.2062,-2.2059,-2.2057,-2.2156,-2.2161,-2.2166,0,0,0,0,0,0,0,0,0,0,0,0,0,-2.1801,-2.1806,-2.2032,-2.2033,-2.2035,-2.2126,-2.2127,-2.2128,-2.2066,-2.2062,-2.2059,-2.2055,-2.2154,-2.216,-2.2167,0,0,0,0,0,0,0,0,0,0,0,0,0,-2.1899,-2.1807,-2.2032,-2.2014,-2.2013,-2.2125,-2.2127,-2.2129,-2.2066,-2.2062,-2.2058,-2.2054,-2.2152,-2.216,-2.2167,-2.2303,0,0,-2.2192,-2.2195,0,0,0,0,0,0,0,0,-2.1894,-2.1908,-2.2016,-2.2016,-2.2015,-2.2079,-2.2082,-2.2187,-2.2067,-2.2046,-2.2057,-2.2052,-2.2134,-2.2143,-2.217,-2.2308,-2.2312,-2.2192,-2.2197,-2.2201,-2.2203,0,0,0,0,0,0,0,-2.1887,-2.1903,-2.2069,-2.2017,-2.2017,-2.2002,-2.2011,-2.2102,-2.2113,-2.2048,-2.2044,-2.2055,-2.2133,-2.2163,-2.2172,-2.2313,-2.2192,-2.2199,-2.2204,-2.2207,-2.2567,-2.2571,0,0,0,0,0,0,-2.1881,-2.1898,-2.2066,-2.2072,-2.1942,-2.201,-2.202,-2.2063,-2.2112,-2.2115,-2.2059,-2.2052,-2.2151,-2.2163,-2.2175,-2.2338,-2.2201,-2.2208,-2.2213,-2.2562,-2.2568,-2.2573,0,0,0,0,0,0,-2.1877,-2.1897,-2.2063,-2.1984,-2.2004,-2.2018,-2.2067,-2.2067,-2.2097,-2.212,-2.2122,-2.2087,-2.2148,-2.2164,-2.2272,-2.2341,-2.2212,-2.2219,-2.2556,-2.2564,-2.257,-2.2664,0,0,0,0,0,0,-2.187,-2.1896,-2.1947,-2.1986,-2.2008,-2.2157,-2.2071,-2.2072,-2.211,-2.2102,-2.2147,-2.2151,-2.2146,-2.226,-2.228,-2.2349,-2.2225,-2.255,-2.256,-2.2568,-2.2655,-2.2674,-2.2689,0,0,0,0,0,-2.1862,-2.197,-2.195,-2.1971,-2.2073,-2.2161,-2.2174,-2.2166,-2.2116,-2.2168,-2.2183,-2.2149,-2.2329,-2.2272,-2.2293,-2.2366,-2.2546,-2.2557,-2.2567,-2.2647,-2.267,-2.2689,0,0,0,0,0,0,-2.1941,-2.1975,-2.1953,-2.2076,-2.2116,-2.215,-2.2216,-2.219,-2.2246,-2.2236,-2.2224,-2.2235,-2.2347,-2.2367,-2.2302,-2.25,-2.243,-2.2445,-2.2483,-2.2505,-2.2522,-2.2516,-2.2232,0,0,0,0,0,-2.1972,-2.204,-2.2067,-2.2173,-2.2194,-2.2202,-2.224,-2.223,-2.2271,-2.2288,-2.2311,-2.2353,-2.2418,-2.2462,-2.2524,-2.2657,-2.2666,-2.2717,-2.2735,-2.2749,-2.2763,-2.2835,-2.2858,-2.2608,-2.2608,-2.2608,0,0,-2.2038,-2.2065,-2.2109,-2.2189,-2.2219,-2.2291,-2.2216,-2.2295,-2.2349,-2.23,-2.2403,-2.2421,-2.2467,-2.2588,-2.2642,-2.2608,-2.2834,-2.2762,-2.2773,-2.278,-2.2848,-2.2872,-2.2893,-2.2615,-2.2614,-2.2613,0,0,-2.2196,-2.2223,-2.2314,-2.2345,-2.2391,-2.2395,-2.2417,-2.2455,-2.2465,-2.2567,-2.2532,-2.2595,-2.2709,-2.2744,-2.2776,-2.2945,-2.2917,-2.2966,-2.3057,-2.3127,-2.3147,-2.3164,-2.3226,-2.3248,-2.2979,-2.298,-2.298,0,-2.2273,-2.2379,-2.2365,-2.2447,-2.2484,-2.2441,-2.2534,-2.2565,-2.2629,-2.2656,-2.2616,-2.2757,-2.2785,-2.2914,-2.2955,-2.2982,-2.3008,-2.2962,-2.3145,-2.3162,-2.3178,-2.3237,-2.326,-2.2985,-2.2985,-2.2984,-2.2984,0,-2.2472,-2.2546,-2.2614,-2.2676,-2.272,-2.2807,-2.2808,-2.2854,-2.284,-2.2848,-2.2953,-2.2985,-2.3053,-2.3082,-2.3069,-2.3209,-2.3186,-2.3146,-2.3076,-2.3208,-2.3263,-2.3285,-2.2994,-2.2992,-2.299,-2.2988,0,0,-2.2684,-2.2735,-2.2761,-2.2789,-2.2835,-2.2892,-2.2977,-2.3042,-2.3083,-2.3128,-2.32,-2.3296,-2.3259,-2.3296,-2.3286,-2.3347,-2.3481,-2.33,-2.33,-2.3333,-2.3638,-2.3669,-2.3695,-2.3461,-2.3465,-2.3468,-2.3634,0,-2.2845,-2.2993,-2.2983,-2.3122,-2.3191,-2.3151,-2.3225,-2.3262,-2.3272,-2.3332,-2.3342,-2.3412,-2.3356,-2.3379,-2.3437,-2.3452,-2.3542,-2.344,-2.3529,-2.3532,-2.3521,-2.3724,-2.3757,-2.3913,-2.3655,-2.3659,-2.3662,0,-2.3053,-2.3105,-2.3251,-2.3287,-2.3315,-2.3382,-2.3441,-2.3498,-2.3539,-2.3542,-2.3582,-2.3562,-2.3649,-2.3575,-2.3695,-2.3625,-2.3661,-2.3673,-2.3679,-2.3689,-2.3607,-2.3741,-2.3962,-2.3986,-2.3695,-2.3692,-2.369,0,-2.3195,-2.33,-2.3402,-2.3426,-2.347,-2.3518,-2.3539,-2.3575,-2.3615,-2.3666,-2.3692,-2.3753,-2.3787,-2.3835,-2.3832,-2.3778,-2.3954,-2.3879,-2.396,-2.396,-2.4001,-2.3999,-2.4233,-2.4021,-2.402,-2.402,-2.4019,0,-2.3378,-2.3469,-2.3466,-2.3529,-2.363,-2.3617,-2.3718,-2.3733,-2.3766,-2.3831,-2.38,-2.3862,-2.3853,-2.3916,-2.3914,-2.4014,-2.4029,-2.4035,-2.4034,-2.4039,-2.4038,-2.4064,-2.4053,-2.4026,-2.4025,-2.4023,-2.4022,0,-2.3554,-2.3555,-2.3663,-2.3695,-2.3705,-2.3779,-2.3807,-2.3866,-2.3872,-2.3955,-2.3974,-2.3985,-2.4057,-2.4057,-2.414,-2.4139,-2.4261,-2.4247,-2.4248,-2.4246,-2.4327,-2.432,-2.4586,-2.4621,-2.4385,-2.4387,-2.4389,0,-2.3672,-2.3741,-2.378,-2.3821,-2.3844,-2.3911,-2.3951,-2.394,-2.3983,-2.4034,-2.4088,-2.4157,-2.4211,-2.4328,-2.4344,-2.4407,-2.4395,-2.4484,-2.4404,-2.4407,-2.4398,-2.4394,-2.4402,-2.45,-2.4503,-2.4505,-2.4506,0,-2.388,-2.3877,-2.3935,-2.3994,-2.4043,-2.4089,-2.4131,-2.4167,-2.4161,-2.4211,-2.4284,-2.4326,-2.4409,-2.4478,-2.4539,-2.4561,-2.4534,-2.4531,-2.4553,-2.456,-2.4558,-2.4562,-2.4292,-2.4526,-2.4524,-2.4522,-2.4521,-2.452,-2.4032,-2.4092,-2.4128,-2.4194,-2.4225,-2.4265,-2.4323,-2.4335,-2.4395,-2.4462,-2.4452,-2.4533,-2.4572,-2.465,-2.4677,-2.4741,-2.471,-2.4742,-2.4751,-2.4759,-2.4769,-2.4546,-2.4752,-2.4751,-2.4751,-2.475,-2.475,0,-2.424,-2.4261,-2.4322,-2.4382,-2.4434,-2.4401,-2.4447,-2.4493,-2.4564,-2.4602,-2.4656,-2.474,-2.4806,-2.4826,-2.489,-2.4937,-2.4927,-2.4955,-2.4952,-2.4958,-2.4792,-2.4767,-2.4963,-2.4963,-2.4963,-2.4962,-2.4962,-2.4962,-2.4355,-2.4455,-2.4456,-2.457,-2.4591,-2.4669,-2.4698,-2.4735,-2.4765,-2.486,-2.4914,-2.4926,-2.4957,-2.5023,-2.5083,-2.5087,-2.5113,-2.5147,-2.5146,-2.4991,-2.497,-2.4949,-2.4926,-2.5152,-2.5152,-2.5307,-2.5308,-2.5309]},{"header":{"parameterUnit":"m.s-1","parameterCategory":1,"la1":30.2991,"la2":30.254,"lo1":-89.0895,"lo2":-89.0444,"dy":0.0017,"dx":0.0017,"nx":28,"ny":28,"refTime":"2025-01-02T09:00:00:Z","depth":0,"parameterNumber":3,"parameterNumberName":"V-component_of_WINDS"},"data":[0,0,0,0,0,0,0,0,0,0,0,0,0,0,0,0,0,0,0,0,0,0,0,0,0,0,0,0,0,0,0,0,0,0,0,0,0,0,0,0,0,0,0,0,0,0,0,0,0,0,0,0,0,0,0,0,0,0,-3.6265,-3.6266,0,-3.6351,-3.6352,-3.6353,-3.6301,-3.6298,-3.6296,-3.6293,-3.6378,-3.6383,-3.6387,0,0,0,0,0,0,0,0,0,0,0,0,0,-3.6054,-3.6059,-3.6265,-3.6266,-3.6268,-3.6351,-3.6352,-3.6353,-3.6301,-3.6298,-3.6295,-3.6292,-3.6377,-3.6382,-3.6388,0,0,0,0,0,0,0,0,0,0,0,0,0,-3.6144,-3.606,-3.6265,-3.6252,-3.6251,-3.635,-3.6352,-3.6353,-3.6302,-3.6298,-3.6294,-3.6291,-3.6375,-3.6382,-3.6389,-3.6505,0,0,-3.6409,-3.6412,0,0,0,0,0,0,0,0,-3.6139,-3.6151,-3.6253,-3.6253,-3.6253,-3.6311,-3.6308,-3.6404,-3.6303,-3.6283,-3.6293,-3.6289,-3.6359,-3.6367,-3.6391,-3.6509,-3.6512,-3.641,-3.6414,-3.6417,-3.6419,0,0,0,0,0,0,0,-3.6132,-3.6147,-3.6299,-3.6254,-3.6254,-3.624,-3.6249,-3.6326,-3.634,-3.6284,-3.6281,-3.6291,-3.6358,-3.6384,-3.6393,-3.6514,-3.641,-3.6416,-3.642,-3.6423,-3.673,-3.6733,0,0,0,0,0,0,-3.6128,-3.6143,-3.6296,-3.6302,-3.6185,-3.6247,-3.6257,-3.6296,-3.6339,-3.6342,-3.6295,-3.6289,-3.6375,-3.6385,-3.6395,-3.6534,-3.6417,-3.6423,-3.6427,-3.6726,-3.673,-3.6735,0,0,0,0,0,0,-3.6123,-3.6142,-3.6293,-3.6221,-3.6239,-3.6255,-3.6299,-3.63,-3.6326,-3.6347,-3.6349,-3.6319,-3.6372,-3.6386,-3.6478,-3.6536,-3.6427,-3.6433,-3.6721,-3.6727,-3.6733,-3.6811,0,0,0,0,0,0,-3.6118,-3.6141,-3.6186,-3.6223,-3.6243,-3.6375,-3.6303,-3.6304,-3.6338,-3.6332,-3.6371,-3.6374,-3.637,-3.6468,-3.6485,-3.6543,-3.6438,-3.6716,-3.6724,-3.6731,-3.6804,-3.6819,-3.6833,0,0,0,0,0,-3.611,-3.6204,-3.6188,-3.6207,-3.63,-3.6379,-3.639,-3.6385,-3.6343,-3.6388,-3.6402,-3.6373,-3.6527,-3.6478,-3.6496,-3.6558,-3.6712,-3.6721,-3.673,-3.6797,-3.6816,-3.6833,0,0,0,0,0,0,-3.6173,-3.6209,-3.6192,-3.6301,-3.6337,-3.637,-3.6426,-3.6406,-3.6454,-3.6446,-3.6436,-3.6446,-3.6542,-3.6559,-3.6504,-3.6672,-3.6613,-3.6626,-3.6657,-3.6676,-3.669,-3.6684,-3.6444,0,0,0,0,0,-3.62,-3.6262,-3.6289,-3.6382,-3.6402,-3.6411,-3.6445,-3.6438,-3.6475,-3.649,-3.651,-3.6546,-3.6602,-3.664,-3.6693,-3.6806,-3.6813,-3.6857,-3.6872,-3.6883,-3.6895,-3.6955,-3.6974,-3.6765,-3.6765,-3.6765,0,0,-3.6256,-3.6283,-3.6322,-3.6396,-3.6423,-3.6486,-3.6424,-3.6494,-3.654,-3.65,-3.6588,-3.6604,-3.6644,-3.6747,-3.6793,-3.6764,-3.6954,-3.6895,-3.6904,-3.6909,-3.6966,-3.6986,-3.7003,-3.6771,-3.677,-3.6769,0,0,-3.6389,-3.6416,-3.6497,-3.6526,-3.6568,-3.6573,-3.6593,-3.6629,-3.6638,-3.6727,-3.6697,-3.6752,-3.685,-3.6879,-3.6906,-3.705,-3.7025,-3.7068,-3.7144,-3.7202,-3.7219,-3.7233,-3.7284,-3.7302,-3.7079,-3.7079,-3.7079,0,-3.6453,-3.6548,-3.6541,-3.6612,-3.6645,-3.6612,-3.6693,-3.6721,-3.6778,-3.6801,-3.6768,-3.6889,-3.6914,-3.7022,-3.7057,-3.7081,-3.7102,-3.7063,-3.7217,-3.7231,-3.7245,-3.7293,-3.7312,-3.7084,-3.7083,-3.7083,-3.7083,0,-3.6623,-3.6689,-3.6749,-3.6806,-3.6845,-3.6921,-3.6925,-3.6965,-3.6954,-3.6963,-3.7053,-3.7081,-3.7139,-3.7164,-3.7154,-3.7271,-3.7252,-3.7218,-3.7158,-3.727,-3.7315,-3.7333,-3.7091,-3.7089,-3.7088,-3.7087,0,0,-3.68,-3.6851,-3.6873,-3.6898,-3.6942,-3.6992,-3.7066,-3.7123,-3.7158,-3.7198,-3.7259,-3.7342,-3.7311,-3.7343,-3.7335,-3.7387,-3.7498,-3.7347,-3.7347,-3.7373,-3.7627,-3.7652,-3.7674,-3.7481,-3.7485,-3.7487,-3.7624,0,-3.6935,-3.7065,-3.7061,-3.7181,-3.7241,-3.7211,-3.7274,-3.7308,-3.7318,-3.7369,-3.7379,-3.7438,-3.7393,-3.7412,-3.7461,-3.7474,-3.7549,-3.7464,-3.7537,-3.7539,-3.7528,-3.7698,-3.7724,-3.7852,-3.7642,-3.7645,-3.7647,0,-3.7111,-3.7158,-3.7285,-3.7319,-3.7344,-3.7402,-3.7454,-3.7504,-3.754,-3.7544,-3.7579,-3.7563,-3.7636,-3.7575,-3.7675,-3.7618,-3.7647,-3.7657,-3.7662,-3.7669,-3.76,-3.7708,-3.7892,-3.7911,-3.7674,-3.7672,-3.767,0,-3.7227,-3.7321,-3.7409,-3.7431,-3.7474,-3.7515,-3.7534,-3.7567,-3.7602,-3.7646,-3.7668,-3.7721,-3.775,-3.779,-3.7788,-3.7744,-3.789,-3.7828,-3.7893,-3.7894,-3.7926,-3.7924,-3.8117,-3.7945,-3.7945,-3.7945,-3.7944,0,-3.7379,-3.7457,-3.7461,-3.7516,-3.7602,-3.7596,-3.7681,-3.7696,-3.7726,-3.7781,-3.7757,-3.781,-3.7804,-3.7857,-3.7856,-3.7938,-3.7951,-3.7955,-3.7954,-3.7958,-3.7957,-3.7976,-3.7967,-3.795,-3.7948,-3.7947,-3.7947,0,-3.7522,-3.7528,-3.7622,-3.7654,-3.7664,-3.7726,-3.7753,-3.7804,-3.7811,-3.7882,-3.7898,-3.7909,-3.797,-3.7972,-3.8041,-3.804,-3.8141,-3.813,-3.8129,-3.8127,-3.8192,-3.8186,-3.8405,-3.8433,-3.8243,-3.8245,-3.8246,0,-3.7619,-3.7679,-3.7717,-3.7753,-3.7775,-3.7833,-3.7868,-3.7863,-3.7901,-3.7946,-3.7991,-3.8049,-3.8096,-3.8194,-3.8207,-3.826,-3.825,-3.8323,-3.8257,-3.8259,-3.825,-3.8246,-3.8252,-3.8335,-3.8337,-3.8339,-3.834,0,-3.7789,-3.7789,-3.7841,-3.7894,-3.7937,-3.7978,-3.8016,-3.8047,-3.8046,-3.8089,-3.8151,-3.8187,-3.8258,-3.8315,-3.8366,-3.8385,-3.8363,-3.8361,-3.8379,-3.8383,-3.838,-3.8382,-3.8164,-3.8356,-3.8354,-3.8353,-3.8352,-3.8352,-3.7912,-3.7963,-3.7999,-3.8057,-3.8085,-3.8121,-3.817,-3.8184,-3.8236,-3.8293,-3.8287,-3.8356,-3.8389,-3.8455,-3.8478,-3.8531,-3.8505,-3.8531,-3.8538,-3.8544,-3.8551,-3.8371,-3.854,-3.8539,-3.8539,-3.8539,-3.8538,0,-3.8081,-3.8102,-3.8155,-3.821,-3.8256,-3.8231,-3.8272,-3.8311,-3.8372,-3.8406,-3.8452,-3.8523,-3.8578,-3.8596,-3.865,-3.8689,-3.868,-3.8703,-3.87,-3.8704,-3.8571,-3.855,-3.8709,-3.8709,-3.8709,-3.8709,-3.8709,-3.8709,-3.8174,-3.826,-3.8263,-3.8362,-3.8382,-3.845,-3.8475,-3.8508,-3.8534,-3.8615,-3.8661,-3.8672,-3.87,-3.8755,-3.8804,-3.8808,-3.8829,-3.8856,-3.8856,-3.8731,-3.8714,-3.8697,-3.8677,-3.8861,-3.8861,-3.8984,-3.8985,-3.8986]}]]